Radiation Dose at Monitoring Post of Fukushima Daini Nuclear Power Station
Date,Time,MP-1(microSv/h),MP-2(microSv/h),MP-3(microSv/h),MP-4(microSv/h),MP-5(microSv/h),MP-6(microSv/h),MP-7(microSv/h),Wind Direction,Wind Velocity(m/s),Rain
2019/01/28,00:00,0.217,0.193,0.314,0.292,0.273,0.156,0.094,northwest,2.5,No
2019/01/28,00:10,0.216,0.192,0.314,0.292,0.274,0.157,0.095,north-northwest,2.7,No
2019/01/28,00:20,0.215,0.192,0.315,0.292,0.275,0.156,0.094,north-northwest,2.8,No
2019/01/28,00:30,0.216,0.192,0.315,0.293,0.274,0.156,0.095,northwest,3.3,No
2019/01/28,00:40,0.216,0.192,0.314,0.292,0.274,0.156,0.095,northwest,5.1,No
2019/01/28,00:50,0.216,0.192,0.315,0.291,0.273,0.156,0.094,northwest,3.7,No
2019/01/28,01:00,0.215,0.191,0.315,0.293,0.274,0.156,0.094,northwest,2.7,No
2019/01/28,01:10,0.216,0.193,0.315,0.292,0.274,0.156,0.094,northwest,3.1,No
2019/01/28,01:20,0.216,0.192,0.313,0.292,0.274,0.155,0.095,northwest,2.5,No
2019/01/28,01:30,0.216,0.192,0.316,0.292,0.274,0.156,0.096,west-northwest,1.9,No
2019/01/28,01:40,0.216,0.193,0.315,0.292,0.274,0.157,0.094,west,1.0,No
2019/01/28,01:50,0.215,0.192,0.313,0.291,0.273,0.156,0.095,south,0.9,No
2019/01/28,02:00,0.215,0.191,0.315,0.292,0.273,0.156,0.094,south,0.9,No
2019/01/28,02:10,0.216,0.191,0.316,0.292,0.274,0.156,0.095,south-southeast,1.3,No
2019/01/28,02:20,0.217,0.193,0.315,0.294,0.275,0.156,0.095,south-southeast,1.6,No
2019/01/28,02:30,0.215,0.192,0.314,0.292,0.273,0.156,0.094,southeast,2.0,No
2019/01/28,02:40,0.215,0.192,0.315,0.292,0.274,0.155,0.095,south-southwest,3.2,No
2019/01/28,02:50,0.216,0.192,0.315,0.292,0.273,0.157,0.095,south,3.2,No
2019/01/28,03:00,0.216,0.193,0.314,0.293,0.274,0.156,0.095,south,3.4,No
2019/01/28,03:10,0.215,0.192,0.313,0.291,0.274,0.155,0.095,south,3.6,No
2019/01/28,03:20,0.217,0.192,0.313,0.292,0.274,0.155,0.094,south-southwest,3.4,No
2019/01/28,03:30,0.215,0.192,0.313,0.292,0.273,0.156,0.094,south-southwest,2.3,No
2019/01/28,03:40,0.215,0.191,0.314,0.292,0.272,0.155,0.094,southwest,1.8,No
2019/01/28,03:50,0.216,0.192,0.315,0.293,0.274,0.155,0.094,southwest,1.5,No
2019/01/28,04:00,0.216,0.193,0.315,0.292,0.275,0.157,0.094,west-northwest,1.0,No
2019/01/28,04:10,0.215,0.192,0.314,0.292,0.273,0.156,0.094,west,1.4,No
2019/01/28,04:20,0.216,0.193,0.314,0.292,0.274,0.156,0.094,west,2.3,No
2019/01/28,04:30,0.215,0.193,0.315,0.293,0.274,0.156,0.094,west-northwest,3.5,No
2019/01/28,04:40,0.216,0.191,0.315,0.293,0.274,0.157,0.093,west-southwest,0.9,No
2019/01/28,04:50,0.216,0.192,0.315,0.294,0.275,0.156,0.095,south-southeast,1.9,No
2019/01/28,05:00,0.215,0.192,0.314,0.292,0.273,0.155,0.094,south-southeast,1.9,No
2019/01/28,05:10,0.216,0.192,0.313,0.292,0.273,0.155,0.095,south-southwest,3.6,No
2019/01/28,05:20,0.215,0.192,0.315,0.293,0.274,0.156,0.094,southwest,5.2,No
2019/01/28,05:30,0.215,0.191,0.314,0.293,0.275,0.156,0.094,south-southwest,3.8,No
2019/01/28,05:40,0.215,0.191,0.315,0.292,0.274,0.156,0.094,southwest,4.5,No
2019/01/28,05:50,0.216,0.192,0.314,0.292,0.273,0.156,0.095,south-southwest,3.7,No
2019/01/28,06:00,0.215,0.193,0.313,0.293,0.273,0.156,0.094,south,3.4,No
2019/01/28,06:10,0.216,0.192,0.315,0.292,0.274,0.155,0.095,south,4.0,No
2019/01/28,06:20,0.217,0.191,0.314,0.292,0.274,0.156,0.093,south-southwest,5.4,No
2019/01/28,06:30,0.215,0.191,0.313,0.293,0.273,0.156,0.095,south-southwest,3.5,No
2019/01/28,06:40,0.215,0.191,0.315,0.294,0.274,0.156,0.095,south,3.0,No
2019/01/28,06:50,0.216,0.191,0.315,0.291,0.274,0.155,0.094,south,3.4,No
2019/01/28,07:00,0.215,0.192,0.313,0.292,0.275,0.155,0.095,south,2.8,No
2019/01/28,07:10,0.216,0.192,0.314,0.293,0.272,0.156,0.095,south,2.0,No
2019/01/28,07:20,0.216,0.191,0.313,0.293,0.273,0.156,0.094,south-southwest,2.0,No
2019/01/28,07:30,0.216,0.193,0.314,0.291,0.275,0.156,0.096,south-southwest,2.0,No
2019/01/28,07:40,0.217,0.191,0.314,0.292,0.274,0.156,0.095,south-southwest,3.1,No
2019/01/28,07:50,0.216,0.191,0.314,0.293,0.273,0.155,0.095,south-southwest,5.5,No
2019/01/28,08:00,0.215,0.192,0.315,0.292,0.272,0.155,0.094,south,5.0,No
2019/01/28,08:10,0.216,0.192,0.314,0.291,0.272,0.155,0.095,south-southwest,6.0,No
2019/01/28,08:20,0.215,0.192,0.315,0.294,0.273,0.156,0.095,south-southwest,6.6,No
2019/01/28,08:30,0.215,0.192,0.315,0.292,0.274,0.156,0.095,south-southwest,7.1,No
2019/01/28,08:40,0.215,0.191,0.313,0.292,0.275,0.156,0.093,south-southwest,7.1,No
2019/01/28,08:50,0.219,0.191,0.312,0.292,0.273,0.156,0.094,south-southwest,7.8,No
2019/01/28,09:00,0.214,0.192,0.314,0.293,0.273,0.156,0.094,south-southwest,8.4,No
2019/01/28,09:10,0.213,0.192,0.314,0.292,0.275,0.155,0.094,south-southwest,8.4,No
2019/01/28,09:20,0.215,0.192,0.313,0.292,0.274,0.156,0.094,south-southwest,8.1,No
2019/01/28,09:30,0.218,0.192,0.314,0.293,0.274,0.156,0.094,south,9.0,No
2019/01/28,09:40,0.212,0.193,0.314,0.292,0.274,0.157,0.094,south,8.5,No
2019/01/28,09:50,0.212,0.191,0.313,0.292,0.274,0.155,0.095,south,8.4,No
2019/01/28,10:00,0.217,0.191,0.313,0.291,0.273,0.157,0.093,south,9.2,No
2019/01/28,10:10,0.212,0.192,0.314,0.294,0.275,0.156,0.095,south,8.1,No
2019/01/28,10:20,0.217,0.191,0.314,0.294,0.275,0.155,0.094,south-southwest,8.2,No
2019/01/28,10:30,0.217,0.192,0.314,0.293,0.275,0.156,0.094,south,9.0,No
2019/01/28,10:40,0.213,0.191,0.314,0.293,0.276,0.155,0.094,south-southwest,11.4,No
2019/01/28,10:50,0.213,0.192,0.315,0.294,0.275,0.156,0.094,south-southwest,10.1,No
2019/01/28,11:00,0.212,0.191,0.314,0.293,0.274,0.155,0.094,south-southwest,10.6,No
2019/01/28,11:10,0.212,0.192,0.314,0.292,0.275,0.156,0.093,south-southwest,9.2,No
2019/01/28,11:20,0.212,0.192,0.313,0.293,0.276,0.156,0.093,south-southwest,10.0,No
2019/01/28,11:30,0.212,0.191,0.316,0.294,0.275,0.156,0.094,south-southwest,8.5,No
2019/01/28,11:40,0.212,0.191,0.314,0.293,0.276,0.156,0.093,south,9.6,No
2019/01/28,11:50,0.211,0.192,0.314,0.293,0.274,0.156,0.094,south,9.0,No
2019/01/28,12:00,0.211,0.191,0.315,0.293,0.274,0.157,0.094,south,8.7,No
2019/01/28,12:10,0.210,0.193,0.314,0.293,0.275,0.157,0.094,south,10.3,No
2019/01/28,12:20,0.212,0.191,0.312,0.293,0.275,0.157,0.094,south,8.6,No
2019/01/28,12:30,0.211,0.194,0.314,0.291,0.277,0.157,0.094,south-southwest,10.0,No
2019/01/28,12:40,0.213,0.191,0.313,0.293,0.276,0.157,0.094,south,10.6,No
2019/01/28,12:50,0.212,0.191,0.314,0.294,0.276,0.157,0.094,south,11.7,No
2019/01/28,13:00,0.213,0.192,0.315,0.292,0.275,0.156,0.094,south-southeast,7.3,No
2019/01/28,13:10,0.211,0.191,0.314,0.294,0.278,0.157,0.094,south,9.8,No
2019/01/28,13:20,0.212,0.193,0.315,0.293,0.276,0.156,0.095,south,10.3,No
2019/01/28,13:30,0.210,0.193,0.312,0.294,0.276,0.157,0.095,south,9.5,No
2019/01/28,13:40,0.212,0.192,0.316,0.292,0.276,0.156,0.094,south,9.0,No
2019/01/28,13:50,0.210,0.193,0.314,0.295,0.276,0.156,0.094,south,8.4,No
2019/01/28,14:00,0.211,0.192,0.314,0.293,0.277,0.156,0.095,south,8.2,No
2019/01/28,14:10,0.210,0.192,0.315,0.292,0.276,0.156,0.093,south,9.0,No
2019/01/28,14:20,0.211,0.193,0.314,0.293,0.278,0.156,0.095,south,8.2,No
2019/01/28,14:30,0.210,0.192,0.316,0.293,0.274,0.157,0.095,south,8.7,No
2019/01/28,14:40,0.210,0.192,0.314,0.295,0.277,0.157,0.095,south,8.1,No
2019/01/28,14:50,0.211,0.192,0.315,0.292,0.276,0.155,0.095,south,7.4,No
2019/01/28,15:00,0.211,0.193,0.316,0.294,0.276,0.156,0.094,south,7.3,No
2019/01/28,15:10,0.211,0.193,0.315,0.295,0.278,0.155,0.094,south-southeast,6.5,No
2019/01/28,15:20,0.211,0.194,0.314,0.293,0.276,0.156,0.094,south,5.3,No
2019/01/28,15:30,0.210,0.193,0.316,0.296,0.278,0.156,0.094,south-southwest,4.7,No
2019/01/28,15:40,0.210,0.193,0.314,0.294,0.277,0.157,0.094,south,5.0,No
2019/01/28,15:50,0.212,0.193,0.315,0.293,0.276,0.156,0.094,south,3.9,No
2019/01/28,16:00,0.211,0.193,0.316,0.295,0.278,0.157,0.094,southwest,3.8,No
2019/01/28,16:10,0.211,0.193,0.315,0.294,0.276,0.157,0.095,south-southwest,2.6,No
2019/01/28,16:20,0.212,0.195,0.314,0.294,0.277,0.157,0.094,west-southwest,2.6,No
2019/01/28,16:30,0.213,0.193,0.316,0.296,0.278,0.157,0.095,southwest,4.0,No
2019/01/28,16:40,0.212,0.194,0.314,0.295,0.277,0.157,0.095,southwest,3.7,No
2019/01/28,16:50,0.212,0.194,0.314,0.294,0.277,0.158,0.095,southwest,3.8,No
2019/01/28,17:00,0.211,0.193,0.316,0.295,0.277,0.157,0.095,west-southwest,3.3,No
2019/01/28,17:10,0.212,0.193,0.314,0.294,0.277,0.159,0.095,west-southwest,2.8,No
2019/01/28,17:20,0.212,0.194,0.316,0.294,0.277,0.157,0.095,west,4.0,No
2019/01/28,17:30,0.214,0.194,0.318,0.296,0.276,0.158,0.094,west,4.6,No
2019/01/28,17:40,0.212,0.193,0.314,0.295,0.278,0.158,0.095,west,4.3,No
2019/01/28,17:50,0.213,0.194,0.315,0.294,0.275,0.158,0.095,west,4.5,No
2019/01/28,18:00,0.213,0.194,0.316,0.295,0.277,0.158,0.095,west,4.5,No
2019/01/28,18:10,0.213,0.194,0.314,0.294,0.276,0.158,0.094,west,6.6,No
2019/01/28,18:20,0.212,0.193,0.317,0.295,0.277,0.157,0.095,west-northwest,9.0,No
2019/01/28,18:30,0.213,0.194,0.315,0.294,0.277,0.158,0.095,west-northwest,9.3,No
2019/01/28,18:40,0.213,0.193,0.315,0.295,0.276,0.158,0.095,west-northwest,9.8,No
2019/01/28,18:50,0.214,0.194,0.318,0.296,0.276,0.158,0.095,northwest,9.0,No
2019/01/28,19:00,0.213,0.193,0.316,0.295,0.276,0.158,0.095,west-northwest,8.7,No
2019/01/28,19:10,0.213,0.193,0.316,0.296,0.276,0.157,0.094,west-northwest,9.2,No
2019/01/28,19:20,0.212,0.194,0.315,0.294,0.278,0.158,0.095,west-northwest,9.5,No
2019/01/28,19:30,0.214,0.193,0.316,0.294,0.276,0.158,0.095,west-northwest,9.6,No
2019/01/28,19:40,0.212,0.193,0.316,0.295,0.276,0.157,0.096,northwest,5.6,No
2019/01/28,19:50,0.212,0.193,0.316,0.295,0.278,0.158,0.095,north-northwest,5.3,No
2019/01/28,20:00,0.213,0.194,0.317,0.294,0.277,0.158,0.094,north,6.7,No
2019/01/28,20:10,0.214,0.193,0.317,0.296,0.277,0.159,0.095,north,7.0,No
2019/01/28,20:20,0.212,0.194,0.317,0.297,0.277,0.157,0.095,north-northwest,8.1,No
2019/01/28,20:30,0.213,0.194,0.315,0.295,0.276,0.156,0.095,northwest,9.3,No
2019/01/28,20:40,0.214,0.193,0.316,0.297,0.276,0.157,0.094,north-northwest,5.8,No
2019/01/28,20:50,0.214,0.195,0.315,0.295,0.276,0.158,0.095,north,4.5,No
2019/01/28,21:00,0.214,0.194,0.316,0.296,0.278,0.158,0.095,north-northwest,4.0,No
2019/01/28,21:10,0.214,0.195,0.318,0.296,0.277,0.157,0.095,northwest,5.5,No
2019/01/28,21:20,0.214,0.195,0.316,0.296,0.277,0.157,0.095,northwest,6.5,No
2019/01/28,21:30,0.213,0.195,0.317,0.295,0.277,0.159,0.095,northwest,5.6,No
2019/01/28,21:40,0.216,0.195,0.317,0.297,0.277,0.157,0.096,northwest,5.2,No
2019/01/28,21:50,0.213,0.194,0.316,0.297,0.277,0.157,0.096,northwest,3.8,No
2019/01/28,22:00,0.214,0.195,0.317,0.295,0.276,0.158,0.095,west-northwest,3.1,No
2019/01/28,22:10,0.213,0.194,0.318,0.295,0.277,0.157,0.095,west-northwest,3.4,No
2019/01/28,22:20,0.214,0.194,0.317,0.296,0.277,0.158,0.095,west-northwest,4.3,No
2019/01/28,22:30,0.214,0.195,0.317,0.296,0.277,0.158,0.096,west-northwest,4.5,No
2019/01/28,22:40,0.215,0.194,0.317,0.295,0.276,0.159,0.095,west-northwest,5.2,No
2019/01/28,22:50,0.213,0.194,0.317,0.296,0.276,0.157,0.095,west-northwest,6.0,No
2019/01/28,23:00,0.214,0.194,0.316,0.295,0.277,0.158,0.096,west-northwest,6.0,No
2019/01/28,23:10,0.212,0.195,0.317,0.296,0.276,0.158,0.095,northwest,5.8,No
2019/01/28,23:20,0.214,0.194,0.318,0.296,0.276,0.157,0.095,north-northwest,6.1,No
2019/01/28,23:30,0.213,0.194,0.317,0.296,0.277,0.158,0.096,north-northwest,4.4,No
2019/01/28,23:40,0.213,0.195,0.317,0.296,0.277,0.157,0.095,north-northwest,4.7,No
2019/01/28,23:50,0.213,0.194,0.316,0.295,0.277,0.157,0.095,north-northwest,4.7,No
